STARLINK-4721 (53796 NORAD) Tracking and Keplerian Element Data

This shows tracking and keplerian element data for the satellite.

Feedback or suggestion? Click here.




ElementValue
Catalog53796
NameSTARLINK-4721
Epoch Orbit1124
Epoch Day325.24575818
Epoch Year2022
RAAN272.514
Inclination53.2168
Eccentricity0.0003794
Argument of Perigee10.9883
Mean Anonmoly349.1219
Mean Motion15.73200308
Decay Rate3.33E-06
L11 53796U 22111Z 22325.24575818 .00000333 00000+0 68208-5 0 9998
L22 53796 53.2168 272.5140 0003794 10.9883 349.1219 15.73200308 11246



Live tracking and technical data element details for STARLINK-4721 (NORAD 53796). STARLINK-4721 can be tracked NOW for your location showing map with azimuth and elevation plus other details from your city location.







IsCatalogInMostPopularTable: catalog: 53796, numindb: -1

Insert: records affected: 1


GetName: 53796 STARLINK-4721

Hit Count: inserted at: Thu, 08 Dec 2022 10:15:04 GMT